Weather History for Bentonville, AR

Change the Weather History Date:

Thursday, January 2, 2014

  Actual Average Record
Temperature  
Mean Temperature 18 °F -  
Max Temperature 26 °F 41 °F 67 °F (1964)
Min Temperature 10 °F 21 °F -2 °F (1979)
Degree Days  
Heating Degree Days 47    
Moisture  
Dew Point 8 °F    
Average Humidity 67    
Maximum Humidity 85    
Minimum Humidity 47    
Precipitation  
Precipitation 0.00 in - - ()
Sea Level Pressure  
Sea Level Pressure 30.33 in    
Wind  
Wind Speed 10 mph (NNW)    
Max Wind Speed 20 mph    
Max Gust Speed 24 mph    
Visibility 10 miles    
Events      
Averages and records for this station are not official NWS values.
T = Trace of Precipitation, MM = Missing Value Source: NWS Daily Summary

Daily Weather History Graph

Daily Weather History Graph

Search for Another Location

Airport:

Trip Planner

Search our weather history database for the weather conditions in past years. The results will help you decide how hot, cold, wet, or windy it might be!

Date:

Astronomy

Jan. 02, 2014 Rise Set
Actual Time 7:28 AM CST 5:13 PM CST
Civil Twilight 7:00 AM CST 5:42 PM CST
Nautical Twilight 6:27 AM CST 6:14 PM CST
Astronomical Twilight 5:56 AM CST 6:45 PM CST
Moon 8:13 AM CST (1/2) 7:07 PM CST (1/2)
Length of Visible Light 10h 42m
Length of Day
9h 44m
Waxing Crescent, 3% of the Moon is Illuminated
Jan 2
Waxing Crescent
Jan 7
First Quarter
Jan 15
Full
Jan 23
Last Quarter
Jan 30
New

Hourly Weather History & Observations

Time (CST) Temp. Windchill Dew Point Humidity Pressure Visibility Wind Dir Wind Speed Gust Speed Precip Events Conditions
12:15 AM 21.2 °F 9.5 °F 15.8 °F 80% 30.13 in 3.0 mi NNW 11.5 mph 23.0 mph N/A   Overcast
12:35 AM 21.2 °F 7.8 °F 15.8 °F 80% 30.14 in 2.5 mi NNW 15.0 mph 23.0 mph N/A   Overcast
12:55 AM 19.4 °F 3.6 °F 14.0 °F 80% 30.15 in 2.5 mi North 19.6 mph 23.0 mph N/A   Overcast
1:15 AM 19.4 °F 5.5 °F 12.2 °F 74% 30.16 in 3.0 mi North 15.0 mph 24.2 mph N/A   Overcast
1:35 AM 19.4 °F 5.5 °F 12.2 °F 74% 30.16 in 3.0 mi NNW 15.0 mph 21.9 mph N/A   Overcast
1:55 AM 17.6 °F 4.3 °F 10.4 °F 73% 30.17 in 8.0 mi North 12.7 mph 24.2 mph N/A   Mostly Cloudy
2:15 AM 17.6 °F 5.7 °F 10.4 °F 73% 30.18 in 10.0 mi North 10.4 mph - N/A   Scattered Clouds
2:35 AM 17.6 °F 6.4 °F 10.4 °F 73% 30.20 in 9.0 mi NNW 9.2 mph - N/A   Overcast
2:55 AM 15.8 °F 1.4 °F 8.6 °F 73% 30.21 in 10.0 mi North 13.8 mph 19.6 mph N/A   Mostly Cloudy
3:15 AM 15.8 °F 4.2 °F 8.6 °F 73% 30.22 in 10.0 mi North 9.2 mph - N/A   Mostly Cloudy
3:35 AM 15.8 °F 2.7 °F 8.6 °F 73% 30.23 in 10.0 mi NNW 11.5 mph 16.1 mph N/A   Overcast
3:55 AM 15.8 °F 2.7 °F 8.6 °F 73% 30.24 in 10.0 mi NNW 11.5 mph 17.3 mph N/A   Overcast
4:15 AM 14.0 °F -0.2 °F 6.8 °F 73% 30.25 in 10.0 mi North 12.7 mph 21.9 mph N/A   Overcast
4:35 AM 14.0 °F 0.5 °F 6.8 °F 73% 30.25 in 10.0 mi NNW 11.5 mph - N/A   Overcast
4:55 AM 14.0 °F 0.5 °F 6.8 °F 73% 30.26 in 10.0 mi NNW 11.5 mph 16.1 mph N/A   Overcast
5:15 AM 14.0 °F 2.9 °F 6.8 °F 73% 30.27 in 10.0 mi North 8.1 mph 16.1 mph N/A   Overcast
5:35 AM 12.2 °F -0.2 °F 6.8 °F 79% 30.27 in 10.0 mi NNW 9.2 mph - N/A   Overcast
5:55 AM 12.2 °F -1.0 °F 6.8 °F 79% 30.27 in 10.0 mi NNW 10.4 mph - N/A   Overcast
6:15 AM 12.2 °F -1.0 °F 6.8 °F 79% 30.29 in 10.0 mi NNW 10.4 mph - N/A   Overcast
6:35 AM 12.2 °F -0.2 °F 6.8 °F 79% 30.30 in 10.0 mi NNW 9.2 mph - N/A   Overcast
6:55 AM 12.2 °F 0.7 °F 6.8 °F 79% 30.31 in 10.0 mi NNW 8.1 mph - N/A   Overcast
7:15 AM 12.2 °F -0.2 °F 5.0 °F 73% 30.32 in 10.0 mi NNW 9.2 mph - N/A   Overcast
7:35 AM 10.4 °F -1.5 °F 6.8 °F 85% 30.32 in 10.0 mi NNW 8.1 mph - N/A   Overcast
7:55 AM 10.4 °F 0.8 °F 5.0 °F 79% 30.33 in 10.0 mi NW 5.8 mph - N/A   Overcast
8:15 AM 10.4 °F 2.2 °F 3.2 °F 73% 30.33 in 10.0 mi NNW 4.6 mph - N/A   Mostly Cloudy
8:35 AM 10.4 °F 2.2 °F 6.8 °F 85% 30.34 in 10.0 mi NW 4.6 mph - N/A   Partly Cloudy
8:55 AM 10.4 °F -0.4 °F 5.0 °F 79% 30.34 in 10.0 mi NNW 6.9 mph - N/A   Clear
9:15 AM 12.2 °F 1.7 °F 5.0 °F 73% 30.35 in 10.0 mi North 6.9 mph - N/A   Clear
9:35 AM 12.2 °F 0.7 °F 6.8 °F 79% 30.36 in 10.0 mi North 8.1 mph - N/A   Clear
9:55 AM 14.0 °F 0.5 °F 6.8 °F 73% 30.37 in 10.0 mi North 11.5 mph - N/A   Clear
10:15 AM 15.8 °F 6.1 °F 8.6 °F 73% 30.38 in 10.0 mi NNW 6.9 mph - N/A   Clear
10:35 AM 17.6 °F 8.2 °F 8.6 °F 68% 30.38 in 10.0 mi NNW 6.9 mph - N/A   Clear
10:55 AM 17.6 °F 5.7 °F 8.6 °F 68% 30.38 in 10.0 mi North 10.4 mph - N/A   Clear
11:15 AM 17.6 °F 6.4 °F 10.4 °F 73% 30.37 in 10.0 mi North 9.2 mph - N/A   Clear
11:35 AM 19.4 °F 11.5 °F 10.4 °F 68% 30.37 in 10.0 mi NW 5.8 mph - N/A   Clear
11:55 AM 19.4 °F 11.5 °F 10.4 °F 68% 30.37 in 10.0 mi NNW 5.8 mph - N/A   Clear
12:15 PM 21.2 °F 10.9 °F 10.4 °F 63% 30.36 in 10.0 mi NW 9.2 mph - N/A   Clear
12:35 PM 21.2 °F 12.6 °F 10.4 °F 63% 30.36 in 10.0 mi West 6.9 mph - N/A   Clear
12:55 PM 23.0 °F 12.4 °F 10.4 °F 59% 30.36 in 10.0 mi NW 10.4 mph 16.1 mph N/A   Clear
1:15 PM 24.8 °F 14.6 °F 10.4 °F 54% 30.35 in 10.0 mi NW 10.4 mph - N/A   Clear
1:35 PM 24.8 °F 15.3 °F 10.4 °F 54% 30.35 in 10.0 mi WNW 9.2 mph - N/A   Clear
1:55 PM 24.8 °F 15.3 °F 10.4 °F 54% 30.35 in 10.0 mi WNW 9.2 mph - N/A   Clear
2:15 PM 24.8 °F 13.4 °F 10.4 °F 54% 30.34 in 10.0 mi WNW 12.7 mph - N/A   Clear
2:35 PM 24.8 °F 14.0 °F 10.4 °F 54% 30.35 in 10.0 mi NW 11.5 mph - N/A   Clear
2:55 PM 24.8 °F 15.3 °F 10.4 °F 54% 30.35 in 10.0 mi North 9.2 mph 16.1 mph N/A   Clear
3:15 PM 24.8 °F 15.3 °F 10.4 °F 54% 30.35 in 10.0 mi North 9.2 mph - N/A   Clear
3:35 PM 26.6 °F 17.5 °F 8.6 °F 47% 30.35 in 10.0 mi North 9.2 mph - N/A   Clear
3:55 PM 24.8 °F 14.0 °F 10.4 °F 54% 30.35 in 10.0 mi NNW 11.5 mph - N/A   Mostly Cloudy
4:15 PM 24.8 °F 16.9 °F 8.6 °F 50% 30.36 in 10.0 mi North 6.9 mph - N/A   Overcast
4:35 PM 24.8 °F 16.9 °F 8.6 °F 50% 30.36 in 10.0 mi North 6.9 mph - N/A   Overcast
4:55 PM 24.8 °F 15.3 °F 8.6 °F 50% 30.36 in 10.0 mi North 9.2 mph - N/A   Mostly Cloudy
5:15 PM 23.0 °F 17.0 °F 6.8 °F 50% 30.36 in 10.0 mi NNW 4.6 mph - N/A   Partly Cloudy
5:35 PM 21.2 °F 14.9 °F 8.6 °F 58% 30.36 in 10.0 mi North 4.6 mph - N/A   Clear
5:55 PM 21.2 °F 14.9 °F 8.6 °F 58% 30.37 in 10.0 mi NNW 4.6 mph - N/A   Clear
6:15 PM 21.2 °F 14.9 °F 8.6 °F 58% 30.37 in 10.0 mi NNW 4.6 mph - N/A   Clear
6:35 PM 21.2 °F 14.9 °F 6.8 °F 54% 30.38 in 10.0 mi NNW 4.6 mph - N/A   Clear
6:55 PM 19.4 °F 10.4 °F 8.6 °F 63% 30.38 in 10.0 mi North 6.9 mph - N/A   Clear
7:15 PM 19.4 °F 12.8 °F 8.6 °F 63% 30.38 in 10.0 mi North 4.6 mph - N/A   Clear
7:35 PM 19.4 °F 12.8 °F 6.8 °F 58% 30.38 in 10.0 mi North 4.6 mph - N/A   Clear
7:55 PM 19.4 °F 12.8 °F 6.8 °F 58% 30.39 in 10.0 mi NNW 4.6 mph - N/A   Clear
8:15 PM 17.6 °F 8.2 °F 8.6 °F 68% 30.39 in 10.0 mi North 6.9 mph - N/A   Clear
8:35 PM 17.6 °F 10.7 °F 6.8 °F 63% 30.40 in 10.0 mi North 4.6 mph - N/A   Clear
8:55 PM 17.6 °F 9.3 °F 6.8 °F 63% 30.40 in 10.0 mi North 5.8 mph - N/A   Clear
9:15 PM 17.6 °F 9.3 °F 6.8 °F 63% 30.40 in 10.0 mi NNE 5.8 mph - N/A   Clear
9:35 PM 15.8 °F 6.1 °F 6.8 °F 68% 30.40 in 10.0 mi NNE 6.9 mph - N/A   Clear
9:55 PM 15.8 °F 8.6 °F 6.8 °F 68% 30.41 in 10.0 mi NNE 4.6 mph - N/A   Clear
10:15 PM 15.8 °F 10.2 °F 6.8 °F 68% 30.42 in 10.0 mi ENE 3.5 mph - N/A   Clear
10:35 PM 15.8 °F 10.2 °F 5.0 °F 62% 30.42 in 10.0 mi East 3.5 mph - N/A   Clear
10:55 PM 15.8 °F - 5.0 °F 62% 30.42 in 10.0 mi Calm Calm - N/A   Clear
11:15 PM 15.8 °F - 6.8 °F 68% 30.43 in 10.0 mi Calm Calm - N/A   Clear
11:35 PM 15.8 °F - 8.6 °F 73% 30.42 in 10.0 mi Calm Calm - N/A   Clear
11:55 PM 14.0 °F - 6.8 °F 73% 30.43 in 10.0 mi Calm Calm - N/A   Clear